Weather History for KADM - December, 2012

Change the Weather History Date:

Tuesday, December 25, 2012

  Actual Average Record
Temperature  
Mean Temperature 32 °F -  
Max Temperature 37 °F 51 °F 62 °F (2005)
Min Temperature 26 °F 31 °F 17 °F (1998)
Degree Days  
Heating Degree Days 34    
Moisture  
Dew Point 30 °F    
Average Humidity 85    
Maximum Humidity 100    
Minimum Humidity 70    
Precipitation  
Precipitation 0.13 in - - ()
Sea Level Pressure  
Sea Level Pressure 29.91 in    
Wind  
Wind Speed 8 mph (NNE)    
Max Wind Speed 15 mph    
Max Gust Speed 22 mph    
Visibility 8 miles    
Events Rain , Thunderstorm    
Averages and records for this station are not official NWS values.
T = Trace of Precipitation, MM = Missing Value Source: NWS Daily Summary

Daily Weather History Graph

Daily Weather History Graph

Search for Another Location

Airport or City:

Trip Planner

Search our weather history database for the weather conditions in past years. The results will help you decide how hot, cold, wet, or windy it might be!

Date:

Astronomy

Dec. 25, 2012 Rise Set
Actual Time 7:32 AM CST 5:24 PM CST
Civil Twilight 7:04 AM CST 5:52 PM CST
Nautical Twilight 6:33 AM CST 6:23 PM CST
Astronomical Twilight 6:02 AM CST 6:54 PM CST
Moon 3:32 PM CST (12/25) 5:07 AM CST (12/25)
Length of Visible Light 10h 48m
Length of Day
9h 52m
Waxing Gibbous, 94% of the Moon is Illuminated
Dec 25
Waxing Gibbous
Dec 28
Full
Jan 4
Last Quarter
Jan 11
New
Jan 18
First Quarter

Hourly Weather History & Observations

Time (CST) Temp. Windchill Dew Point Humidity Pressure Visibility Wind Dir Wind Speed Gust Speed Precip Events Conditions
12:15 AM 35.6 °F 29.9 °F 28.4 °F 75% 29.84 in 10.0 mi NE 6.9 mph - N/A   Unknown
12:35 AM 35.6 °F - 28.4 °F 75% 29.88 in 10.0 mi Calm Calm - N/A   Unknown
12:55 AM 37.4 °F 32.8 °F 28.4 °F 70% 29.87 in 10.0 mi North 5.8 mph - N/A   Unknown
1:15 AM 37.4 °F 30.8 °F 28.4 °F 70% 29.88 in 10.0 mi North 9.2 mph - N/A   Unknown
1:35 AM 37.4 °F 33.8 °F 30.2 °F 75% 29.87 in 10.0 mi NNE 4.6 mph - N/A   Light Drizzle
1:55 AM 35.6 °F 28.6 °F 32.0 °F 87% 29.87 in 7.0 mi NNE 9.2 mph - N/A Rain Light Rain
2:15 AM 35.6 °F 29.2 °F 32.0 °F 87% 29.87 in 4.0 mi NNE 8.1 mph - 0.03 in Rain Rain
2:35 AM 35.6 °F 29.2 °F 32.0 °F 87% 29.84 in 3.0 mi North 8.1 mph - 0.07 in Rain Light Rain
3:15 AM 35.6 °F 28.0 °F 33.8 °F 93% 29.79 in 4.0 mi East 10.4 mph - 0.04 in Rain Light Rain
3:35 AM 35.6 °F 29.2 °F 35.6 °F 100% 29.78 in 5.0 mi NNE 8.1 mph 17.3 mph 0.06 in Rain Light Rain
3:55 AM 37.4 °F 31.4 °F 35.6 °F 93% 29.78 in 5.0 mi NNE 8.1 mph - 0.06 in   Mist
4:15 AM 37.4 °F 31.4 °F 35.6 °F 93% 29.80 in 7.0 mi NNE 8.1 mph - N/A   Unknown
4:35 AM 37.4 °F 30.8 °F 35.6 °F 93% 29.81 in 7.0 mi East 9.2 mph - N/A Thunderstorm Unknown
4:55 AM 35.6 °F 29.2 °F 35.6 °F 100% 29.80 in 5.0 mi NE 8.1 mph - N/A   Mist
5:15 AM 35.6 °F 26.2 °F 33.8 °F 93% 29.76 in 5.0 mi NE 15.0 mph 21.9 mph N/A Thunderstorm Mist
5:35 AM 35.6 °F 29.2 °F 33.8 °F 93% 29.81 in 5.0 mi NW 8.1 mph 19.6 mph N/A Thunderstorm Unknown
10:35 PM 28.4 °F 19.1 °F 23.0 °F 80% 30.15 in 10.0 mi NNW 10.4 mph - N/A   Unknown
10:55 PM 28.4 °F 19.1 °F 23.0 °F 80% 30.16 in 10.0 mi North 10.4 mph - N/A   Unknown
11:15 PM 28.4 °F 17.5 °F 23.0 °F 80% 30.16 in 10.0 mi North 13.8 mph 18.4 mph N/A   Unknown
11:35 PM 26.6 °F 16.8 °F 21.2 °F 80% 30.17 in 10.0 mi NNW 10.4 mph - N/A   Unknown
11:55 PM 26.6 °F 15.2 °F 21.2 °F 80% 30.18 in 10.0 mi NNW 13.8 mph - N/A   Unknown